Hamilton Island, Australia

10:11 PM AEST on August 22, 2017 (GMT +1000)
Hamilton Island

Weather History for YBHM - May, 2013

Change the Weather History Date:

Friday, May 31, 2013

  Actual Average Record
Temperature  
Mean Temperature 72 °F -  
Max Temperature 75 °F - - ()
Min Temperature 69 °F - - ()
Cooling Degree Days 7    
Growing Degree Days 22 (Base 50)    
Moisture  
Dew Point 67 °F    
Average Humidity 83    
Maximum Humidity 94    
Minimum Humidity 70    
Precipitation  
Precipitation 0.00 in - - ()
Sea Level Pressure  
Sea Level Pressure 30.10 in    
Wind  
Wind Speed 23 mph ()    
Max Wind Speed 31 mph    
Max Gust Speed 39 mph    
T = Trace of Precipitation, MM = Missing Value Source: Averaged Metar Reports

Daily Weather History Graph

Daily Weather History Graph

Search for Another Location

Airport or City:

Trip Planner

Search our weather history database for the weather conditions in past years. The results will help you decide how hot, cold, wet, or windy it might be!

Date:

Astronomy

May. 31, 2013 Rise Set
Actual Time 6:32 AM AEST 5:31 PM AEST
Civil Twilight 6:08 AM AEST 5:55 PM AEST
Nautical Twilight 5:41 AM AEST 6:22 PM AEST
Astronomical Twilight 5:14 AM AEST 6:49 PM AEST
Moon 11:51 PM AEST (5/31) 11:42 AM AEST (5/31)
Length of Visible Light 11h 46m
Length of Day
10h 59m
Waning Gibbous, 58% of the Moon is Illuminated
May 31
Waning Gibbous
Jun 1
Last Quarter
Jun 9
New
Jun 17
First Quarter
Jun 23
Full

Hourly Weather History & Observations

Time (AEST) Temp. Dew Point Humidity Pressure Visibility Wind Dir Wind Speed Gust Speed Precip Events Conditions
12:00 AM 72 °F 68 °F 82% 30.14 in - ESE 25.3 mph - -  
12:00 AM 71.6 °F 68.0 °F 88% 30.12 in - ESE 25.3 mph - N/A   Unknown
12:30 AM 71.6 °F 66.2 °F 83% 30.12 in - ESE 26.5 mph - N/A   Unknown
1:00 AM 71.6 °F 66.2 °F 83% 30.12 in - ESE 25.3 mph - N/A   Unknown
1:30 AM 71.6 °F 68.0 °F 88% 30.12 in - ESE 25.3 mph - N/A   Unknown
2:00 AM 71.6 °F 66.2 °F 83% 30.09 in - ESE 24.2 mph - N/A   Unknown
2:30 AM 71.6 °F 66.2 °F 83% 30.09 in - ESE 24.2 mph - N/A   Unknown
3:00 AM 72 °F 67 °F 81% 30.11 in - SE 25.3 mph - -  
3:00 AM 71.6 °F 68.0 °F 88% 30.09 in - SE 25.3 mph - N/A   Unknown
3:30 AM 71.6 °F 66.2 °F 83% 30.09 in - ESE 26.5 mph - N/A   Unknown
4:00 AM 71.6 °F 66.2 °F 83% 30.09 in - ESE 25.3 mph - N/A   Unknown
4:30 AM 71.6 °F 64.4 °F 78% 30.09 in - ESE 25.3 mph - N/A   Unknown
5:00 AM 71.6 °F 64.4 °F 78% 30.09 in - ESE 26.5 mph - N/A   Unknown
5:30 AM 71.6 °F 66.2 °F 83% 30.09 in - ESE 25.3 mph - N/A   Unknown
6:00 AM 72 °F 67 °F 78% 30.11 in - ESE 25.3 mph - -  
6:00 AM 71.6 °F 66.2 °F 83% 30.09 in - ESE 25.3 mph - N/A   Unknown
6:30 AM 71.6 °F 66.2 °F 83% 30.12 in - ESE 23.0 mph - N/A   Unknown
7:00 AM 71.6 °F 66.2 °F 83% 30.12 in - ESE 21.9 mph - N/A   Unknown
7:27 AM 71.6 °F 66.2 °F 83% 30.12 in - ESE 23.0 mph 35.7 mph N/A   Unknown
7:30 AM 71.6 °F 68.0 °F 88% 30.12 in - ESE 25.3 mph - N/A   Unknown
8:00 AM 73.4 °F 66.2 °F 78% 30.12 in - ESE 27.6 mph - N/A   Unknown
8:30 AM 73.4 °F 66.2 °F 78% 30.15 in - ESE 27.6 mph - N/A   Unknown
9:00 AM 72 °F 67 °F 81% 30.15 in - ESE 24.2 mph - -  
9:00 AM 73.4 °F 68.0 °F 83% 30.15 in - ESE 24.2 mph - N/A   Unknown
9:30 AM 73.4 °F 66.2 °F 78% 30.15 in - ESE 27.6 mph - N/A   Unknown
9:51 AM 71.6 °F 68.0 °F 88% 30.15 in - ESE 25.3 mph 39.1 mph N/A   Unknown
10:00 AM 69.8 °F 68.0 °F 94% 30.15 in - ESE 31.1 mph - N/A   Unknown
10:30 AM 73.4 °F 68.0 °F 83% 30.15 in - SE 23.0 mph - N/A   Unknown
11:00 AM 75.2 °F 66.2 °F 73% 30.15 in - ESE 28.8 mph - N/A   Unknown
11:30 AM 75.2 °F 68.0 °F 78% 30.12 in - ESE 25.3 mph - N/A   Unknown
12:00 PM 75 °F 67 °F 70% 30.13 in - ESE 26.5 mph - -  
12:00 PM 75.2 °F 68.0 °F 78% 30.12 in - ESE 26.5 mph - N/A   Unknown
12:30 PM 75.2 °F 68.0 °F 78% 30.12 in - ESE 26.5 mph - N/A   Unknown
1:00 PM 73.4 °F 66.2 °F 78% 30.09 in - ESE 27.6 mph - N/A   Unknown
1:30 PM 73.4 °F 66.2 °F 78% 30.09 in - ESE 27.6 mph - N/A   Unknown
2:00 PM 73.4 °F 66.2 °F 78% 30.09 in - ESE 28.8 mph - N/A   Unknown
2:30 PM 73.4 °F 66.2 °F 78% 30.06 in - ESE 26.5 mph - N/A   Unknown
3:00 PM 74 °F 68 °F 76% 30.07 in - ESE 24.2 mph - -  
3:00 PM 73.4 °F 68.0 °F 83% 30.06 in - ESE 24.2 mph - N/A   Unknown
3:30 PM 73.4 °F 66.2 °F 78% 30.06 in - ESE 23.0 mph - N/A   Unknown
4:00 PM 73.4 °F 68.0 °F 83% 30.06 in - SE 23.0 mph - N/A   Unknown
4:30 PM 73.4 °F 66.2 °F 78% 30.06 in - ESE 24.2 mph - N/A   Unknown
5:00 PM 71.6 °F 66.2 °F 83% 30.06 in - ESE 25.3 mph - N/A   Unknown
5:30 PM 71.6 °F 66.2 °F 83% 30.09 in - SE 24.2 mph - N/A   Unknown
6:00 PM 72 °F 67 °F 78% 30.09 in - SE 24.2 mph - -  
6:00 PM 71.6 °F 66.2 °F 83% 30.09 in - SE 24.2 mph - N/A   Unknown
6:30 PM 71.6 °F 66.2 °F 83% 30.09 in - SE 24.2 mph - N/A   Unknown
7:00 PM 71.6 °F 66.2 °F 83% 30.09 in - SE 24.2 mph - N/A   Unknown
7:30 PM 71.6 °F 66.2 °F 83% 30.09 in - SE 20.7 mph - N/A   Unknown
8:00 PM 71.6 °F 68.0 °F 88% 30.09 in - SE 21.9 mph - N/A   Unknown
8:30 PM 71.6 °F 68.0 °F 88% 30.09 in - SE 23.0 mph - N/A   Unknown
9:00 PM 71 °F 68 °F 86% 30.11 in - SE 21.9 mph - -  
9:00 PM 71.6 °F 68.0 °F 88% 30.09 in - SE 21.9 mph - N/A   Unknown
9:30 PM 71.6 °F 68.0 °F 88% 30.09 in - SE 23.0 mph - N/A   Unknown
10:00 PM 71.6 °F 68.0 °F 88% 30.09 in - ESE 21.9 mph - N/A   Unknown
10:30 PM 71.6 °F 68.0 °F 88% 30.09 in - SE 24.2 mph - N/A   Unknown
11:00 PM 71.6 °F 68.0 °F 88% 30.09 in - SE 19.6 mph - N/A   Unknown
11:08 PM 71.6 °F 68.0 °F 88% 30.09 in - ESE 21.9 mph 33.4 mph N/A   Unknown
11:39 PM 71.6 °F 69.8 °F 94% 30.06 in - ESE 20.7 mph 35.7 mph N/A   Unknown